CZ-6A DEB, 54524

Orbit data source: Space-Track

CZ-6A DEB, 54524 is space debris in SSO originally from a launch on Fri, 11 Nov 2022 UTC launched from the Taiyaun Space Center, China (TSC). Debris objects in space refer to the collection of defunct objects orbiting the Earth. Examples of debris include non-operational satellites, rocket bodies, and fragments generated from explosions, collisions, or faulty payload assembly.

Loading next visibility...
Identifier
54524, 2022-151KC
Orbit
SSO
Country
Flag of CNCN / PRC
Related business
Manufacturer
SAST
Mission
Spacecraft
Bus & Motor
Unknown
Mass
Unknown
Launch date (UTC)
2022-11-11 (3 years ago)
Launch vehicle
Unknown
Launch site
Taiyaun Space Center, China (TSC)
Object type
Payload
Rocket body
Debris
Shape & HBR
Unknown shape, 0.1 m
Radar Cross Section
Small (<0.1 m²)

Expand to show TLE details & history
Last TLE update: 12 hours ago

TLE from 12 hours ago
0 CZ-6A DEB
1 54524U 22151KC  25355.04942369  .00004290  00000-0  89097-3 0  9999
2 54524  98.4769  20.1195 0092661 105.8404 255.3032 14.57976394163903
Epoch: 2025-12-21T01:11Z
TLE epoch observation values (Epoch: 2025-12-21T01:11:10.206Z)
Latitude
-0.00011°
Longitude
-87.54046°
Altitude
719.899 km
Speed
7.486 km/s
True Right ascension
01h 20m 28s
True Declination
0° 00' 00"
Sunlit
Object was in daylight at epoch
Visualization orbit readout
Latitude
Unknown
Longitude
Unknown
Altitude
Unknown
Speed
Unknown
Apparent Right ascension
Unknown
Apparent Declination
Unknown
Sunlit
N/A
Visualization observer readout
Local Sidereal Time
12:15:49
Azimuth
Unknown
Elevation
Unknown
Doppler factor
Unknown
Orbital elements
Apogee altitude
762.369 km
Perigee altitude
631.255 km
Semi-major axis
7,074.949 km
Eccentricity
0.00927
Inclination
98.4769°
RAAN
20.1195°
Arg. of periapsis
105.8404°
True anomaly
254.27919°
Mean anomaly
255.3032°
Eccentric anomaly
254.79089°
Mean motion
3.64719 °/min
Orbital period
98.71 mins
BSTAR
0.00089097
Loading maneuver chart data...
Computing Atmospheric mass density...
Loading historical data...
Loading historical data...
Loading historical data...
Loading historical data...
Loading historical data...
Loading historical data...
Loading historical data...

Documentation

Showing up to 5 results
|